Погода Усть-Нюкжа

Хотите узнать прогноз погоды Усть-Нюкжа? Тогда Вам сюда: Погода Усть-Нюкжа

Поиск расширенной информации на нашем сайте:

Полезная информация:

Новости сайта



02.01.2020
Опубликован Долгосрочный прогноз погоды по городам России и ближнего зарубежья на январь 2020 года.
Карты: Прогноз на январь и февраль 2020 года, Сравнение прогнозируемой аномалии приземной температуры воздуха на январь 2020 года по разным моделям.




Погода Усть-Нюкжа - сегодня

Время (UTC), дата Ветер
(°,м/с) 
Видим.   Явления Облачность Т
(°С)
Тd
(°С)
f(%) Тe
(°С)
Pmin
(гПа)
dP
(гПа)
Po
(мм)
O2
(г/м3)
Тmin Tmax R s Состояние
почвы
00 30.11.20 320 (СЗ) 20000 м    10/0 средняя, верхняя 
[Ac As|Cs]
-12.9 -19.1 60 -13  1033.4  0.3  732  311  -12.9      13  равномерный
сухой снег
100% 
03 30.11.20 290 (З) 20000 м    6/0 средняя, верхняя 
[Ac cast|Ci fib]
-12.3 -20.1 52 -12  1033  -0.3  731  310           
06 30.11.20 тихо ()   20000 м    ясно 
-11.9 -20.2 50 -12  1031.9  -1  731  309           
09 30.11.20 тихо ()   20000 м    ясно 
-18.8 -22.1 75 -19  1033.9  0.4  731  318           
12 30.11.20 тихо ()   20000 м    8/0 средняя 
[Ac lent]
-22.4 -24.5 83 -22  1035.1  0.4  731  323    -10.8       
15 30.11.20 тихо ()   20000 м    4/0 средняя 
[Ac lent]
-24.4 -27.3 77 -24  1035.1  -0.3  731  325           
18 30.11.20 тихо ()   20000 м    4/0 средняя 
[Ac lent]
-24.3 -26.9 79 -24  1034.6  -0.5  731  325           
21 30.11.20 тихо ()   20000 м    9/0 средняя 
[Ac As]
-25.8 -28.8 76 -26  1034.5  -0.4  731  327           
00 01.12.20 тихо ()   20000 м    5/0 средняя 
[Ac lent]
-27 -29.9 76 -27  1034.9  0.1  731  328  -27      13  равномерный
сухой снег
100% 
03 01.12.20 220 (ЮЗ) н/о    н/о 
-23.9 -27 76 -24  1033.8  -0.3  730  324  -27.2         
06 01.12.20 240 (ЮЗ) 20000 м  {снег}  10/0 верхняя 
[Cs]
-21.2 -25.2 70 -22  1031.7  -1.4  729  320           
09 01.12.20 тихо ()   20000 м  {снег}  9/0 верхняя 
[Cs]
-21.8 -24.3 80 -22  1031.4  -0.4  729  321           
12 01.12.20 тихо ()   20000 м  {снег}  9/0 верхняя 
[Cs]
-23.3 -26.2 77 -23  1031.9  -0.1  729  323    -20.5  0.0     
15 01.12.20 170 (Ю) 20000 м    9/0 верхняя 
[Cs]
-21.8 -25.2 74 -22  1030.8  -0.7  728  321           
18 01.12.20 тихо ()   20000 м    9/0 верхняя 
[Cs]
-22.7 -25.4 79 -23  1029.7  -1.3  727  321           
21 01.12.20 тихо ()   20000 м  {снег}  10/0 верхняя 
[Cs]
-22.8 -25.6 78 -23  1028.5  -1.2  727  321           
00 02.12.20 тихо ()   20000 м  {снег}  10/0 верхняя 
[Cs]
-22.6 -25.4 78 -23  1027.6  -0.7  726  321  -23.8    0.0  14  равномерный
сухой снег
100% 
03 02.12.20 тихо ()   20000 м  {снег}  8/0 верхняя 
[Cs]
-19.9 -24.1 69 -20  1027.5  0.5  726  317           
06 02.12.20 тихо ()   20000 м  {снег}  9/0 верхняя 
[Cs]
-19.2 -24.1 65 -19  1026.6  -0.8  726  316           
09 02.12.20 120 (ЮВ) 20000 м    10/0 верхняя 
[Cs]
-20 -23.8 72 -20  1026.4  -0.3  726  317           
12 02.12.20 тихо ()   50000 м    10/0 верхняя 
[Cs]
-19.1 -23 71 -19  1025.3  -0.8  725  316    -17.9  0.0     
15 02.12.20 тихо ()   10 км  слаб. снег  10/0 верхняя 
[Cs]
-19 -22.3 75 -19  1023.6  -1.6  724  315           
18 02.12.20 тихо ()   20000 м  {снег}  10/0 верхняя 
[Cs]
-19.8 -22.7 78 -20  1023.4  -0.3  724  316           
21 02.12.20 тихо ()   20000 м  {снег}  8/0 верхняя 
[Cs]
-21.9 -24.3 81 -22  1024.2  0.2  724  319           
00 03.12.20 тихо ()   20000 м  {снег}  8/0 средняя, верхняя 
[Ac trans|Cs]
-22.9 -25.4 80 -23  1024  -0.4  723  320  -22.9    0.0  14  равномерный
сухой снег
100% 
Время (UTC), дата Ветер
(°,м/с) 
Видим.   Явления Облачность Т
(°С)
Тd
(°С)
f(%) Тe
(°С)
Pmin
(гПа)
dP
(гПа)
Po
(мм)
O2
(г/м3)
Тmin Tmax R s Состояние
почвы

Для получения пояснительной информации подведите курсор к названию столбца.

ПОГОДА Усть-Нюкжа - архив

Всё, что Вы хотите узнать о погоде Усть-Нюкжа - удобно и подробно!

Выберите нужную дату (начиная с 1 января 2019* года) и нажмите кнопку "Найти".
Будут отображены архивные сводки погоды по пункту Усть-Нюкжа, начиная с указанной даты.


Отображать данные в формате CSV (для использования в таблицах Excel)


Внимание! Наш архив погоды предназначен исключительно для личного некоммерческого использования в познавательных целях. Если Вам необходимы официальные справки о состоянии погоды (для производственных, юридических, коммерческих и т.п. целей), обращайтесь в органы Росгидромета.

*Примечание: данная дата относится к архиву по метеостанциям СССР (Россия, СНГ, Балтия).
Архив по метеостанциям Зарубежной Европы и Азии (кроме Китая) хранится 10 дней, по другим регионам земного шара (Китай, Африка, Америка, Австралия, Океания) - 1 день.

Усть-Нюкжа - район местоположения метеостанции


Название, широта, долгота, высота метеостанции:
Усть-Нюкжа 56.6°ш. 121.5°д. 426 м над ур. моря [Российская Федерация]

Дополнительная информация

В oтличие oт бoльшинства пoгoдных сайтoв мы публикуем пoдрoбную метеoинфoрмацию в детальнoм прoфессиoнальнoм фoрмате.

Характеристики температуры и влажнoсти вoздуха измеряются на высoте 2 м в тени вдали oт зданий и деревьев.
Скoрoсть ветра измеряется на высoте 10 м (на урoвне рoста челoвека скoрoсть ветра ниже в 1.5-2 раза). Если метеoстанция нахoдится в гoрoде или в лесу, тo скoрoсть ветра занижена на 2-4 м/с пo сравнению с oткрытым местoм. Скoрoсть ветра над акватoриями крупных рек и oзёр, а также на вершинах хoлмoв на 2-5 м/с выше, чем в oбычных услoвиях.
Атмoсфернoе давление в разных тoчках местнoсти мoжет значительнo oтличаться oт давления на метеoстанции, в зависимoсти oт услoвий рельефа (при пoдъёме на 10 м давление пoнижается примернo на 1 мм рт.ст.).